| time (UTC) | temp C | wind direction | speed KPH | gust KPH | rain 1hr cm | rain 24hr cm | rain mn cm | humidity % | barometer mb |
| 20260903223503 | 12 | 139 | 0.0 | 1.6 | 0.00 | 0.71 | 0.69 | 80 | 1016.1 |
| 20260903222504 | 12 | 129 | 1.6 | 4.8 | 0.00 | 0.71 | 0.69 | 81 | 1015.9 |
| 20260903222005 | 12 | 125 | 1.6 | 4.8 | 0.00 | 0.71 | 0.69 | 81 | 1016.0 |
| 20260903221004 | 12 | 115 | 0.0 | 3.2 | 0.00 | 0.71 | 0.69 | 82 | 1016.2 |
| 20260903220504 | 12 | 95 | 0.0 | 4.8 | 0.00 | 0.71 | 0.69 | 83 | 1016.2 |
| 20260903215504 | 12 | 111 | 0.0 | 4.8 | 0.00 | 0.71 | 0.69 | 83 | 1016.4 |
| 20260903215005 | 12 | 133 | 0.0 | 3.2 | 0.00 | 0.71 | 0.69 | 82 | 1016.4 |
| 20260903214504 | 12 | 143 | 0.0 | 4.8 | 0.00 | 0.71 | 0.69 | 83 | 1016.5 |
| 20260903214004 | 12 | 129 | 0.0 | 1.6 | 0.00 | 0.71 | 0.69 | 82 | 1016.6 |
| 20260903213504 | 12 | 132 | 0.0 | 3.2 | 0.00 | 0.71 | 0.69 | 84 | 1016.6 |
| 20260903213004 | 12 | 144 | 0.0 | 3.2 | 0.00 | 0.71 | 0.69 | 84 | 1016.6 |
| 20260903212504 | 12 | 145 | 0.0 | 3.2 | 0.00 | 0.71 | 0.69 | 84 | 1016.5 |
| 20260903212004 | 12 | 136 | 1.6 | 4.8 | 0.00 | 0.71 | 0.69 | 83 | 1016.5 |
| 20260903211504 | 12 | 133 | 0.0 | 1.6 | 0.00 | 0.71 | 0.69 | 83 | 1016.6 |
| 20260903211004 | 11 | 115 | 0.0 | 1.6 | 0.00 | 0.71 | 0.69 | 84 | 1016.6 |
| 20260903210003 | 12 | 132 | 0.0 | 3.2 | 0.00 | 0.71 | 0.69 | 83 | 1016.6 |
| 20260903205504 | 12 | 121 | 0.0 | 1.6 | 0.00 | 0.71 | 0.69 | 85 | 1016.6 |
| 20260903204504 | 11 | 140 | 0.0 | 0.0 | 0.00 | 0.71 | 0.69 | 84 | 1016.6 |
| 20260903204004 | 11 | 111 | 0.0 | 1.6 | 0.00 | 0.71 | 0.69 | 86 | 1016.5 |
| 20260903203004 | 11 | 115 | 0.0 | 3.2 | 0.00 | 0.71 | 0.69 | 87 | 1016.7 |
| 20260903202005 | 11 | 130 | 0.0 | 3.2 | 0.00 | 0.71 | 0.69 | 86 | 1016.7 |
| 20260903201504 | 11 | 127 | 1.6 | 4.8 | 0.00 | 0.71 | 0.69 | 84 | 1016.8 |
| 20260903201004 | 11 | 134 | 0.0 | 3.2 | 0.00 | 0.71 | 0.69 | 86 | 1016.8 |
| 20260903200505 | 11 | 122 | 1.6 | 4.8 | 0.00 | 0.71 | 0.69 | 87 | 1016.8 |
| 20260903200004 | 11 | 102 | 0.0 | 4.8 | 0.00 | 0.71 | 0.69 | 89 | 1016.8 |
| 20260903195504 | 10 | 114 | 0.0 | 4.8 | 0.00 | 0.71 | 0.69 | 89 | 1016.8 |
| 20260903195004 | 10 | 133 | 0.0 | 3.2 | 0.00 | 0.71 | 0.69 | 88 | 1016.9 |
| 20260903194504 | 10 | 129 | 0.0 | 1.6 | 0.00 | 0.71 | 0.69 | 89 | 1017.0 |
| 20260903194004 | 10 | 99 | 0.0 | 1.6 | 0.00 | 0.71 | 0.69 | 89 | 1017.1 |
| 20260903193504 | 10 | 117 | 0.0 | 3.2 | 0.00 | 0.71 | 0.69 | 88 | 1017.1 |
| 20260903193004 | 10 | 133 | 0.0 | 3.2 | 0.00 | 0.71 | 0.69 | 89 | 1017.1 |
| 20260903192504 | 10 | 141 | 0.0 | 3.2 | 0.00 | 0.71 | 0.69 | 89 | 1017.1 |
| 20260903191504 | 10 | 129 | 1.6 | 4.8 | 0.00 | 0.71 | 0.69 | 88 | 1017.2 |
| 20260903191004 | 10 | 123 | 1.6 | 4.8 | 0.00 | 0.71 | 0.69 | 88 | 1017.2 |
| 20260903190004 | 11 | 123 | 0.0 | 3.2 | 0.00 | 0.71 | 0.69 | 86 | 1017.2 |
| 20260903185504 | 11 | 107 | 0.0 | 1.6 | 0.00 | 0.71 | 0.69 | 85 | 1017.3 |
| 20260903185004 | 11 | 100 | 0.0 | 3.2 | 0.00 | 0.71 | 0.69 | 87 | 1017.3 |
| 20260903184004 | 10 | 117 | 0.0 | 1.6 | 0.00 | 0.71 | 0.69 | 87 | 1017.4 |
| 20260903183503 | 10 | 118 | 0.0 | 3.2 | 0.00 | 0.71 | 0.69 | 87 | 1017.4 |
| 20260903182504 | 10 | 104 | 1.6 | 3.2 | 0.00 | 0.71 | 0.69 | 87 | 1017.3 |
| 20260903182004 | 10 | 102 | 0.0 | 3.2 | 0.00 | 0.71 | 0.69 | 87 | 1017.4 |
| 20260903181504 | 10 | 93 | 0.0 | 3.2 | 0.00 | 0.71 | 0.69 | 87 | 1017.4 |
| 20260903181004 | 10 | 109 | 0.0 | 0.0 | 0.00 | 0.71 | 0.69 | 87 | 1017.4 |
| 20260903180503 | 10 | 101 | 0.0 | 4.8 | 0.00 | 0.71 | 0.69 | 86 | 1017.3 |
| 20260903180004 | 10 | 100 | 0.0 | 0.0 | 0.00 | 0.71 | 0.69 | 87 | 1017.4 |
| 20260903175504 | 10 | 88 | 0.0 | 0.0 | 0.00 | 0.71 | 0.69 | 85 | 1017.4 |
| 20260903175003 | 11 | 78 | 0.0 | 1.6 | 0.00 | 0.71 | 0.69 | 86 | 1017.4 |
| 20260903174503 | 10 | 75 | 0.0 | 0.0 | 0.00 | 0.71 | 0.69 | 84 | 1017.4 |
| 20260903174004 | 10 | 90 | 0.0 | 0.0 | 0.00 | 0.71 | 0.69 | 83 | 1017.3 |
| 20260903173504 | 10 | 88 | 0.0 | 0.0 | 0.00 | 0.71 | 0.69 | 84 | 1017.2 |
| 20260903173004 | 10 | 90 | 0.0 | 0.0 | 0.00 | 0.71 | 0.69 | 83 | 1017.3 |
| 20260903172504 | 10 | 66 | 0.0 | 0.0 | 0.00 | 0.71 | 0.69 | 83 | 1017.3 |
| 20260903172004 | 10 | 62 | 0.0 | 0.0 | 0.00 | 0.71 | 0.69 | 84 | 1017.3 |
| 20260903171504 | 10 | 59 | 0.0 | 0.0 | 0.00 | 0.71 | 0.69 | 83 | 1017.3 |
| 20260903171004 | 10 | 56 | 0.0 | 0.0 | 0.00 | 0.71 | 0.69 | 85 | 1017.3 |
| 20260903170504 | 10 | 56 | 0.0 | 0.0 | 0.00 | 0.71 | 0.69 | 84 | 1017.3 |
| 20260903170004 | 10 | 52 | 0.0 | 0.0 | 0.00 | 0.71 | 0.69 | 84 | 1017.2 |
| 20260903165504 | 10 | 46 | 0.0 | 0.0 | 0.00 | 0.71 | 0.69 | 86 | 1017.3 |
| 20260903165004 | 10 | 44 | 0.0 | 0.0 | 0.00 | 0.71 | 0.69 | 87 | 1017.2 |
| 20260903164504 | 10 | 42 | 0.0 | 0.0 | 0.00 | 0.71 | 0.69 | 88 | 1017.1 |
| 20260903163504 | 10 | 42 | 0.0 | 0.0 | 0.00 | 0.74 | 0.69 | 89 | 1017.1 |
| 20260903163004 | 10 | 350 | 0.0 | 0.0 | 0.00 | 0.74 | 0.69 | 88 | 1017.1 |
| 20260903162004 | 10 | 350 | 0.0 | 0.0 | 0.03 | 0.76 | 0.69 | 89 | 1017.0 |
| 20260903161504 | 10 | 350 | 0.0 | 0.0 | 0.03 | 0.76 | 0.69 | 89 | 1017.1 |
| 20260903161004 | 9 | 349 | 0.0 | 0.0 | 0.03 | 0.79 | 0.69 | 90 | 1017.0 |
| 20260903160504 | 9 | 330 | 0.0 | 0.0 | 0.03 | 0.79 | 0.69 | 90 | 1017.0 |
| 20260903160004 | 9 | 330 | 0.0 | 0.0 | 0.03 | 0.81 | 0.69 | 91 | 1016.9 |
| 20260903155504 | 9 | 330 | 0.0 | 0.0 | 0.03 | 0.81 | 0.69 | 92 | 1017.0 |
| 20260903155004 | 9 | 329 | 0.0 | 0.0 | 0.05 | 0.84 | 0.69 | 92 | 1017.0 |
| 20260903154504 | 9 | 329 | 0.0 | 0.0 | 0.05 | 0.84 | 0.69 | 92 | 1017.0 |
| 20260903154004 | 9 | 329 | 0.0 | 0.0 | 0.05 | 0.84 | 0.69 | 92 | 1017.0 |
| 20260903153504 | 9 | 329 | 0.0 | 0.0 | 0.05 | 0.84 | 0.69 | 92 | 1017.0 |
| 20260903153004 | 9 | 329 | 0.0 | 0.0 | 0.05 | 0.84 | 0.69 | 92 | 1017.0 |
| 20260903152504 | 9 | 329 | 0.0 | 0.0 | 0.03 | 0.81 | 0.66 | 93 | 1016.9 |
| 20260903152004 | 9 | 328 | 0.0 | 0.0 | 0.03 | 0.84 | 0.66 | 93 | 1016.9 |
| 20260903151504 | 9 | 328 | 0.0 | 0.0 | 0.03 | 0.84 | 0.66 | 93 | 1016.9 |
| 20260903151004 | 9 | 328 | 0.0 | 0.0 | 0.03 | 0.84 | 0.66 | 93 | 1016.9 |
| 20260903150504 | 9 | 327 | 0.0 | 0.0 | 0.03 | 0.84 | 0.66 | 93 | 1016.8 |
| 20260903150004 | 8 | 327 | 0.0 | 0.0 | 0.03 | 0.86 | 0.66 | 93 | 1016.8 |
| 20260903145505 | 8 | 327 | 0.0 | 0.0 | 0.03 | 0.86 | 0.66 | 93 | 1016.7 |
| 20260903144504 | 8 | 327 | 0.0 | 0.0 | 0.00 | 0.84 | 0.64 | 93 | 1016.9 |
| 20260903144004 | 8 | 327 | 0.0 | 0.0 | 0.00 | 0.84 | 0.64 | 93 | 1016.7 |
| 20260903143504 | 8 | 327 | 0.0 | 0.0 | 0.00 | 0.84 | 0.64 | 93 | 1016.6 |
| 20260903143004 | 8 | 325 | 0.0 | 0.0 | 0.00 | 0.84 | 0.64 | 93 | 1016.5 |
| 20260903142504 | 8 | 324 | 0.0 | 1.6 | 0.00 | 0.84 | 0.64 | 93 | 1016.5 |
| 20260903141503 | 8 | 322 | 0.0 | 0.0 | 0.00 | 0.84 | 0.64 | 93 | 1016.5 |
| 20260903141004 | 8 | 319 | 0.0 | 0.0 | 0.00 | 0.84 | 0.64 | 93 | 1016.4 |
| 20260903140504 | 8 | 316 | 0.0 | 0.0 | 0.00 | 0.84 | 0.64 | 93 | 1016.5 |
| 20260903140005 | 8 | 318 | 0.0 | 1.6 | 0.00 | 0.84 | 0.64 | 93 | 1016.4 |
| 20260903135504 | 8 | 325 | 0.0 | 0.0 | 0.00 | 0.84 | 0.64 | 93 | 1016.4 |
| 20260903135004 | 8 | 322 | 0.0 | 0.0 | 0.03 | 0.84 | 0.64 | 93 | 1016.4 |
| 20260903134504 | 8 | 321 | 0.0 | 0.0 | 0.03 | 0.84 | 0.64 | 92 | 1016.4 |
| 20260903134004 | 8 | 320 | 0.0 | 0.0 | 0.03 | 0.84 | 0.64 | 92 | 1016.3 |
| 20260903133504 | 8 | 319 | 0.0 | 0.0 | 0.03 | 0.84 | 0.64 | 92 | 1016.2 |
| 20260903132504 | 8 | 317 | 0.0 | 0.0 | 0.03 | 0.84 | 0.64 | 92 | 1016.1 |
| 20260903132004 | 8 | 317 | 0.0 | 0.0 | 0.03 | 0.84 | 0.64 | 92 | 1016.0 |
| 20260903131504 | 8 | 317 | 0.0 | 0.0 | 0.03 | 0.84 | 0.64 | 91 | 1016.0 |
| 20260903131005 | 8 | 317 | 0.0 | 0.0 | 0.03 | 0.84 | 0.64 | 91 | 1016.0 |
| 20260903130504 | 8 | 317 | 0.0 | 0.0 | 0.03 | 0.84 | 0.64 | 91 | 1016.0 |
| 20260903125504 | 9 | 316 | 0.0 | 0.0 | 0.03 | 0.84 | 0.64 | 91 | 1015.8 |
| 20260903125004 | 9 | 293 | 0.0 | 0.0 | 0.00 | 0.81 | 0.61 | 91 | 1015.7 |
| 20260903124504 | 9 | 293 | 0.0 | 0.0 | 0.00 | 0.81 | 0.61 | 91 | 1015.8 |
| 20260903124004 | 9 | 293 | 0.0 | 0.0 | 0.00 | 0.81 | 0.61 | 91 | 1015.8 |
| 20260903123504 | 9 | 293 | 0.0 | 0.0 | 0.03 | 0.81 | 0.61 | 91 | 1015.8 |
| 20260903122005 | 9 | 293 | 0.0 | 0.0 | 0.03 | 0.81 | 0.61 | 91 | 1015.6 |
| 20260903121504 | 9 | 293 | 0.0 | 0.0 | 0.03 | 0.81 | 0.61 | 91 | 1015.6 |
| 20260903121004 | 9 | 293 | 0.0 | 0.0 | 0.03 | 0.81 | 0.61 | 91 | 1015.7 |
| 20260903120504 | 9 | 293 | 0.0 | 0.0 | 0.03 | 0.81 | 0.61 | 90 | 1015.6 |
| 20260903120004 | 9 | 293 | 0.0 | 0.0 | 0.03 | 0.81 | 0.61 | 90 | 1015.6 |
| 20260903115504 | 9 | 293 | 0.0 | 0.0 | 0.03 | 0.81 | 0.61 | 90 | 1015.6 |
| 20260903114503 | 9 | 293 | 0.0 | 0.0 | 0.03 | 0.81 | 0.61 | 90 | 1015.6 |
| 20260903114004 | 9 | 293 | 0.0 | 0.0 | 0.03 | 0.81 | 0.61 | 90 | 1015.7 |
| 20260903113004 | 9 | 293 | 0.0 | 0.0 | 0.00 | 0.79 | 0.58 | 91 | 1015.6 |
| 20260903112504 | 9 | 293 | 0.0 | 0.0 | 0.00 | 0.79 | 0.58 | 90 | 1015.6 |
| 20260903112004 | 9 | 293 | 0.0 | 0.0 | 0.00 | 0.79 | 0.58 | 90 | 1015.5 |
| 20260903111504 | 9 | 293 | 0.0 | 0.0 | 0.00 | 0.79 | 0.58 | 90 | 1015.4 |
| 20260903111004 | 9 | 293 | 0.0 | 0.0 | 0.00 | 0.79 | 0.58 | 90 | 1015.4 |
| 20260903110504 | 9 | 293 | 0.0 | 0.0 | 0.00 | 0.79 | 0.58 | 91 | 1015.3 |
| 20260903110003 | 9 | 293 | 0.0 | 0.0 | 0.00 | 0.79 | 0.58 | 91 | 1015.3 |
| 20260903105504 | 9 | 355 | 0.0 | 0.0 | 0.00 | 0.79 | 0.58 | 92 | 1015.3 |
| 20260903104504 | 9 | 355 | 0.0 | 0.0 | 0.00 | 0.79 | 0.58 | 91 | 1015.3 |
| 20260903103504 | 9 | 355 | 0.0 | 0.0 | 0.03 | 0.79 | 0.58 | 92 | 1015.3 |
| 20260903103004 | 9 | 355 | 0.0 | 0.0 | 0.03 | 0.79 | 0.58 | 92 | 1015.3 |
| 20260903102003 | 9 | 355 | 0.0 | 0.0 | 0.05 | 0.79 | 0.58 | 92 | 1015.3 |
| 20260903101504 | 9 | 355 | 0.0 | 0.0 | 0.08 | 0.79 | 0.58 | 93 | 1015.3 |
| 20260903101004 | 9 | 355 | 0.0 | 0.0 | 0.08 | 0.79 | 0.58 | 93 | 1015.2 |
| 20260903100504 | 9 | 5 | 0.0 | 0.0 | 0.08 | 0.79 | 0.58 | 93 | 1015.2 |
| 20260903100004 | 9 | 5 | 0.0 | 0.0 | 0.08 | 0.79 | 0.58 | 93 | 1015.2 |
| 20260903095504 | 9 | 5 | 0.0 | 0.0 | 0.08 | 0.79 | 0.58 | 93 | 1015.1 |
| 20260903095005 | 9 | 5 | 0.0 | 0.0 | 0.10 | 0.79 | 0.58 | 93 | 1015.1 |
| 20260903094504 | 9 | 5 | 0.0 | 0.0 | 0.10 | 0.79 | 0.58 | 93 | 1015.1 |
| 20260903094004 | 9 | 5 | 0.0 | 0.0 | 0.10 | 0.76 | 0.56 | 93 | 1015.1 |
| 20260903093504 | 9 | 5 | 0.0 | 0.0 | 0.10 | 0.76 | 0.56 | 93 | 1015.1 |
| 20260903093004 | 9 | 5 | 0.0 | 0.0 | 0.13 | 0.76 | 0.56 | 93 | 1015.2 |
| 20260903092504 | 10 | 5 | 0.0 | 0.0 | 0.10 | 0.74 | 0.53 | 93 | 1015.1 |
| 20260903091503 | 10 | 5 | 0.0 | 0.0 | 0.15 | 0.71 | 0.51 | 93 | 1015.2 |
| 20260903091004 | 10 | 5 | 0.0 | 0.0 | 0.18 | 0.71 | 0.51 | 93 | 1015.2 |
| 20260903090504 | 10 | 5 | 0.0 | 0.0 | 0.23 | 0.71 | 0.51 | 93 | 1015.1 |
| 20260903090004 | 10 | 5 | 0.0 | 0.0 | 0.25 | 0.71 | 0.51 | 93 | 1015.2 |
| 20260903085504 | 10 | 5 | 0.0 | 0.0 | 0.30 | 0.71 | 0.51 | 93 | 1015.3 |
| 20260903085005 | 10 | 5 | 0.0 | 0.0 | 0.30 | 0.69 | 0.48 | 93 | 1015.3 |
| 20260903083503 | 10 | 5 | 0.0 | 0.0 | 0.38 | 0.66 | 0.46 | 93 | 1015.3 |
| 20260903083004 | 10 | 5 | 0.0 | 0.0 | 0.36 | 0.64 | 0.43 | 93 | 1015.4 |
| 20260903082504 | 10 | 5 | 0.0 | 0.0 | 0.38 | 0.64 | 0.43 | 93 | 1015.4 |
| 20260903082004 | 10 | 5 | 0.0 | 0.0 | 0.36 | 0.58 | 0.38 | 93 | 1015.5 |
| 20260903081503 | 10 | 5 | 0.0 | 0.0 | 0.33 | 0.56 | 0.36 | 93 | 1015.5 |
| 20260903081004 | 10 | 5 | 0.0 | 0.0 | 0.30 | 0.53 | 0.33 | 93 | 1015.5 |
| 20260903080504 | 10 | 5 | 0.0 | 0.0 | 0.28 | 0.48 | 0.28 | 93 | 1015.4 |
| 20260903080004 | 10 | 5 | 0.0 | 0.0 | 0.25 | 0.46 | 0.25 | 92 | 1015.4 |
| 20260903075504 | 10 | 5 | 0.0 | 0.0 | 0.20 | 0.41 | 0.20 | 92 | 1015.3 |
| 20260903075004 | 10 | 5 | 0.0 | 0.0 | 0.18 | 0.38 | 0.18 | 92 | 1015.3 |
| 20260903074004 | 10 | 5 | 0.0 | 0.0 | 0.15 | 0.33 | 0.13 | 92 | 1015.2 |
| 20260903073504 | 10 | 5 | 0.0 | 0.0 | 0.10 | 0.28 | 0.08 | 92 | 1015.2 |
| 20260903072004 | 10 | 5 | 0.0 | 0.0 | 0.05 | 0.23 | 0.03 | 91 | 1015.1 |
| 20260903071503 | 10 | 0 | 0.0 | 0.0 | 0.05 | 0.23 | 0.03 | 90 | 1015.1 |
| 20260903071004 | 10 | 355 | 0.0 | 0.0 | 0.05 | 0.23 | 0.03 | 90 | 1015.1 |
| 20260903070504 | 10 | 355 | 0.0 | 0.0 | 0.03 | 0.20 | 0.00 | 89 | 1015.0 |
| 20260903070004 | 10 | 355 | 0.0 | 0.0 | 0.03 | 0.20 | 0.00 | 89 | 1014.9 |
| 20260903064004 | 11 | 31 | 0.0 | 0.0 | 0.00 | 0.18 | 0.18 | 86 | 1014.6 |
| 20260903063504 | 11 | 355 | 0.0 | 0.0 | 0.00 | 0.18 | 0.18 | 85 | 1014.7 |
| 20260903063004 | 11 | 17 | 0.0 | 0.0 | 0.00 | 0.18 | 0.18 | 83 | 1015.0 |
| 20260903062504 | 11 | 26 | 0.0 | 0.0 | 0.00 | 0.18 | 0.18 | 82 | 1014.8 |
| 20260903062004 | 11 | 32 | 0.0 | 0.0 | 0.00 | 0.18 | 0.18 | 82 | 1014.6 |
| 20260903061504 | 11 | 355 | 0.0 | 0.0 | 0.00 | 0.18 | 0.18 | 82 | 1014.7 |
| 20260903060504 | 11 | 334 | 0.0 | 3.2 | 0.00 | 0.18 | 0.18 | 81 | 1014.4 |
| 20260903060004 | 11 | 339 | 0.0 | 0.0 | 0.00 | 0.18 | 0.18 | 81 | 1014.5 |
| 20260903055505 | 11 | 331 | 0.0 | 0.0 | 0.00 | 0.18 | 0.18 | 81 | 1014.5 |
| 20260903055004 | 11 | 346 | 0.0 | 0.0 | 0.00 | 0.18 | 0.18 | 81 | 1014.6 |
| 20260903054504 | 11 | 338 | 0.0 | 0.0 | 0.00 | 0.18 | 0.18 | 81 | 1014.6 |
| 20260903054004 | 11 | 346 | 0.0 | 0.0 | 0.00 | 0.18 | 0.18 | 81 | 1014.7 |
| 20260903053504 | 11 | 338 | 0.0 | 0.0 | 0.00 | 0.18 | 0.18 | 81 | 1014.7 |
| 20260903053004 | 11 | 329 | 0.0 | 0.0 | 0.00 | 0.18 | 0.18 | 80 | 1014.8 |
| 20260903052504 | 11 | 328 | 0.0 | 0.0 | 0.00 | 0.18 | 0.18 | 80 | 1014.8 |
| 20260903052004 | 11 | 321 | 0.0 | 1.6 | 0.00 | 0.18 | 0.18 | 80 | 1014.9 |
| 20260903051504 | 11 | 324 | 0.0 | 0.0 | 0.00 | 0.18 | 0.18 | 80 | 1014.9 |
| 20260903051004 | 11 | 359 | 0.0 | 0.0 | 0.00 | 0.18 | 0.18 | 80 | 1014.8 |
| 20260903050004 | 12 | 321 | 0.0 | 1.6 | 0.00 | 0.18 | 0.18 | 79 | 1014.8 |
| 20260903045004 | 12 | 318 | 0.0 | 4.8 | 0.00 | 0.18 | 0.18 | 79 | 1014.7 |
| 20260903044504 | 12 | 311 | 1.6 | 4.8 | 0.00 | 0.18 | 0.18 | 78 | 1014.6 |
| 20260903044004 | 12 | 308 | 1.6 | 8.0 | 0.00 | 0.18 | 0.18 | 78 | 1014.6 |
| 20260903043504 | 12 | 318 | 1.6 | 8.0 | 0.00 | 0.18 | 0.18 | 78 | 1014.6 |
| 20260903043004 | 12 | 313 | 1.6 | 8.0 | 0.00 | 0.18 | 0.18 | 78 | 1014.7 |
| 20260903042504 | 12 | 320 | 0.0 | 4.8 | 0.00 | 0.18 | 0.18 | 78 | 1014.7 |
| 20260903042004 | 12 | 317 | 1.6 | 4.8 | 0.00 | 0.18 | 0.18 | 78 | 1014.7 |
| 20260903041504 | 12 | 307 | 1.6 | 4.8 | 0.00 | 0.18 | 0.18 | 77 | 1014.7 |
| 20260903041004 | 12 | 316 | 0.0 | 4.8 | 0.00 | 0.18 | 0.18 | 77 | 1014.7 |
| 20260903040504 | 12 | 309 | 1.6 | 4.8 | 0.00 | 0.18 | 0.18 | 76 | 1014.6 |
| 20260903040004 | 12 | 312 | 1.6 | 4.8 | 0.00 | 0.18 | 0.18 | 76 | 1014.6 |
| 20260903035504 | 12 | 305 | 1.6 | 4.8 | 0.00 | 0.18 | 0.18 | 76 | 1014.5 |
| 20260903035005 | 13 | 309 | 3.2 | 12.9 | 0.00 | 0.18 | 0.18 | 75 | 1014.5 |
| 20260903034504 | 13 | 308 | 1.6 | 9.7 | 0.00 | 0.18 | 0.18 | 75 | 1014.4 |
| 20260903034004 | 13 | 304 | 3.2 | 12.9 | 0.00 | 0.18 | 0.18 | 74 | 1014.4 |
| 20260903033504 | 13 | 310 | 3.2 | 12.9 | 0.00 | 0.18 | 0.18 | 73 | 1014.4 |
| 20260903032005 | 14 | 304 | 1.6 | 11.3 | 0.00 | 0.18 | 0.18 | 69 | 1014.1 |
| 20260903031504 | 15 | 301 | 1.6 | 4.8 | 0.00 | 0.18 | 0.18 | 67 | 1014.0 |
| 20260903031004 | 15 | 309 | 0.0 | 3.2 | 0.00 | 0.18 | 0.18 | 67 | 1013.8 |
| 20260903030505 | 15 | 313 | 0.0 | 3.2 | 0.00 | 0.18 | 0.18 | 67 | 1013.8 |
| 20260903030004 | 15 | 311 | 0.0 | 4.8 | 0.00 | 0.18 | 0.18 | 66 | 1013.8 |
| 20260903025503 | 15 | 308 | 1.6 | 4.8 | 0.00 | 0.18 | 0.18 | 67 | 1013.7 |
| 20260903025003 | 15 | 317 | 0.0 | 4.8 | 0.00 | 0.18 | 0.18 | 67 | 1013.7 |
| 20260903024504 | 15 | 312 | 0.0 | 4.8 | 0.00 | 0.18 | 0.18 | 67 | 1013.8 |
| 20260903023504 | 15 | 313 | 3.2 | 9.7 | 0.00 | 0.18 | 0.18 | 66 | 1013.8 |
| 20260903023004 | 15 | 308 | 1.6 | 4.8 | 0.00 | 0.18 | 0.18 | 67 | 1013.8 |
| 20260903022504 | 15 | 316 | 0.0 | 4.8 | 0.00 | 0.18 | 0.18 | 66 | 1013.7 |
| 20260903022004 | 16 | 320 | 0.0 | 3.2 | 0.00 | 0.18 | 0.18 | 69 | 1013.7 |
| 20260903021004 | 16 | 2 | 0.0 | 0.0 | 0.00 | 0.18 | 0.18 | 67 | 1013.5 |
| 20260903020504 | 16 | 65 | 0.0 | 0.0 | 0.00 | 0.18 | 0.18 | 67 | 1013.4 |
| 20260903020004 | 16 | 65 | 0.0 | 0.0 | 0.00 | 0.18 | 0.18 | 66 | 1013.4 |
| 20260903015004 | 17 | 70 | 0.0 | 0.0 | 0.00 | 0.18 | 0.18 | 65 | 1013.5 |
| 20260903014504 | 17 | 72 | 0.0 | 0.0 | 0.00 | 0.18 | 0.18 | 65 | 1013.4 |
| 20260903014003 | 17 | 71 | 0.0 | 0.0 | 0.00 | 0.18 | 0.18 | 65 | 1013.5 |
| 20260903013503 | 17 | 71 | 0.0 | 0.0 | 0.00 | 0.18 | 0.18 | 65 | 1013.4 |
| 20260903013004 | 17 | 71 | 0.0 | 0.0 | 0.00 | 0.18 | 0.18 | 64 | 1013.4 |
| 20260903012004 | 17 | 71 | 0.0 | 0.0 | 0.00 | 0.18 | 0.18 | 64 | 1013.3 |
| 20260903011504 | 17 | 71 | 0.0 | 0.0 | 0.00 | 0.18 | 0.18 | 64 | 1013.3 |
| 20260903011004 | 17 | 71 | 0.0 | 0.0 | 0.00 | 0.18 | 0.18 | 64 | 1013.3 |
| 20260903010504 | 17 | 72 | 0.0 | 0.0 | 0.00 | 0.18 | 0.18 | 64 | 1013.3 |
| 20260903010004 | 17 | 73 | 0.0 | 0.0 | 0.00 | 0.18 | 0.18 | 63 | 1013.3 |
| 20260903005504 | 17 | 73 | 0.0 | 0.0 | 0.00 | 0.18 | 0.18 | 64 | 1013.3 |
| 20260903005004 | 17 | 10 | 0.0 | 0.0 | 0.00 | 0.18 | 0.18 | 64 | 1013.2 |
| 20260903004504 | 17 | 84 | 0.0 | 0.0 | 0.00 | 0.18 | 0.18 | 63 | 1013.3 |
| 20260903004004 | 17 | 80 | 0.0 | 0.0 | 0.00 | 0.18 | 0.18 | 63 | 1013.3 |
| 20260903003504 | 17 | 76 | 0.0 | 0.0 | 0.00 | 0.18 | 0.18 | 63 | 1013.4 |
| 20260903003004 | 17 | 58 | 0.0 | 0.0 | 0.00 | 0.18 | 0.18 | 63 | 1013.3 |
| 20260903002504 | 17 | 59 | 0.0 | 0.0 | 0.00 | 0.18 | 0.18 | 62 | 1013.4 |
| 20260903002004 | 17 | 55 | 0.0 | 0.0 | 0.00 | 0.18 | 0.18 | 62 | 1013.5 |
| 20260903001504 | 17 | 56 | 0.0 | 0.0 | 0.00 | 0.18 | 0.18 | 61 | 1013.5 |
| 20260903001003 | 17 | 55 | 0.0 | 1.6 | 0.00 | 0.18 | 0.18 | 60 | 1013.4 |
| 20260903000004 | 17 | 52 | 0.0 | 0.0 | 0.00 | 0.18 | 0.18 | 61 | 1013.5 |
| 20260902235504 | 17 | 79 | 0.0 | 0.0 | 0.00 | 0.18 | 0.18 | 62 | 1013.5 |
| 20260902235004 | 17 | 64 | 0.0 | 3.2 | 0.00 | 0.18 | 0.18 | 62 | 1013.4 |
| 20260902234504 | 17 | 69 | 0.0 | 3.2 | 0.00 | 0.18 | 0.18 | 62 | 1013.4 |
| 20260902234004 | 17 | 87 | 0.0 | 1.6 | 0.00 | 0.18 | 0.18 | 63 | 1013.4 |
| 20260902233504 | 17 | 70 | 0.0 | 1.6 | 0.00 | 0.18 | 0.18 | 62 | 1013.5 |
| 20260902233004 | 17 | 71 | 0.0 | 1.6 | 0.00 | 0.18 | 0.18 | 62 | 1013.5 |
| 20260902232504 | 17 | 61 | 0.0 | 1.6 | 0.00 | 0.18 | 0.18 | 62 | 1013.5 |
| 20260902232004 | 17 | 63 | 0.0 | 3.2 | 0.00 | 0.18 | 0.18 | 61 | 1013.5 |
| 20260902231004 | 17 | 82 | 0.0 | 4.8 | 0.00 | 0.18 | 0.18 | 62 | 1013.5 |
| 20260902230504 | 17 | 64 | 0.0 | 3.2 | 0.00 | 0.18 | 0.18 | 61 | 1013.5 |
| 20260902230004 | 18 | 92 | 0.0 | 1.6 | 0.00 | 0.18 | 0.18 | 62 | 1013.5 |
| 20260902225504 | 17 | 99 | 0.0 | 4.8 | 0.00 | 0.18 | 0.18 | 60 | 1013.4 |
| 20260902225004 | 17 | 93 | 0.0 | 3.2 | 0.00 | 0.18 | 0.18 | 64 | 1013.5 |